Simultaneous Nadir Overpasses (SNOs) Predictions

Prediction of SNOs between METOP-A and TERRA Satellite Orbit:

Table of predicted SNOs for the next 14.0 days since TLE Epoch: 6/15/2019
Index Date (METOP-A) Time (METOP-A) Lat,Lon (METOP-A) SZA (METOP-A ) Date (TERRA) Time (TERRA) Lat,Lon (TERRA) SZA (TERRA ) Distance(km) Time Diff (sec)
1 06/15/2019 21:48:17 -81.45, 82.92 118.68 06/15/2019 21:49:17 -81.46, 82.99 118.64 1.17 60
2 06/15/2019 22:38:58 81.45,-109.72 61.32 06/15/2019 22:38:44 81.45,-109.60 61.33 1.99 14
3 06/18/2019 17:22:41 -81.45, 149.30 118.79 06/18/2019 17:23:31 -81.46, 149.45 118.74 2.51 50
4 06/18/2019 18:13:22 81.45, -43.36 61.22 06/18/2019 18:12:58 81.45, -43.18 61.22 2.98 24
5 06/21/2019 12:57:03 -81.45,-143.94 118.80 06/21/2019 12:57:44 -81.46,-144.12 118.79 3.27 41
6 06/21/2019 13:47:44 81.45, 23.39 61.21 06/21/2019 13:47:11 81.44, 23.21 61.17 3.04 33
7 06/24/2019 08:31:27 -81.45, -77.59 118.80 06/24/2019 08:31:58 -81.46, -77.73 118.79 2.48 31
8 06/24/2019 09:22:08 81.45, 89.72 61.21 06/24/2019 09:21:25 81.44, 89.57 61.16 2.75 43
9 06/27/2019 04:05:51 -81.45, -11.25 118.74 06/27/2019 04:06:12 -81.45, -11.36 118.74 1.96 21




NCC Satellite Simultaneous Nadir Overpasses (SNOs) Prediction Service
